Probability
0 0 0 0 0 0 0 0 0 0 0 1 3 4 6 8 7 5 1 2 6 8 10 16 23 26 24 23 25 24 21 17 14 10 7 8 9 11 10 8 6 5 6 7 8 9 8 6 5
0 0 0 0 0 0 0 1 1 1 1 2 3 4 7 8 7 4 2 3 7 8 9 15 25 27 23 21 23 23 21 18 16 13 11 10 10 10 11 10 7 6 7 8 8 8 7 6 5
0 0 0 0 0 0 0 1 2 3 3 3 3 5 8 8 6 3 3 6 8 7 8 16 27 29 22 17 18 19 18 17 17 17 15 13 11 11 11 10 8 7 7 8 8 7 6 5 3
0 0 0 0 0 0 0 1 2 3 4 2 3 5 7 8 6 5 6 8 8 7 8 16 27 29 23 17 15 16 16 17 18 19 19 17 15 13 11 10 8 8 8 8 7 6 5 4 3
0 0 0 0 0 0 0 0 0 2 3 2 3 4 5 6 7 9 9 9 10 9 9 16 25 28 25 19 16 16 16 16 18 19 21 21 19 17 15 13 12 11 10 10 9 7 5 3 3
0 0 0 0 0 0 0 0 1 2 4 3 2 3 4 6 9 12 14 13 13 12 11 15 22 25 24 21 18 17 17 16 17 19 21 22 21 20 20 19 17 14 12 12 11 9 6 3 2
0 0 0 0 0 0 0 1 3 4 6 4 2 3 4 7 10 15 18 20 19 18 16 15 17 19 20 20 20 20 21 19 17 18 19 19 19 19 20 21 20 16 14 13 13 13 10 6 5
0 0 0 0 0 0 0 2 6 8 8 6 3 4 8 11 14 18 22 24 23 22 21 18 16 15 14 14 17 22 24 22 19 17 18 18 18 17 17 18 19 18 16 14 15 16 14 11 10
0 0 0 0 0 0 1 3 7 10 11 10 9 11 15 18 19 20 22 22 22 22 20 18 17 13 10 10 14 19 22 20 18 16 18 20 21 19 17 17 18 18 17 17 17 17 16 14 12
0 0 0 0 0 0 1 3 6 9 12 14 16 18 21 23 21 20 18 16 15 15 14 13 13 12 10 11 13 16 16 16 16 15 17 20 22 21 20 19 17 17 18 17 16 14 14 13 12
0 0 0 0 0 0 1 2 5 8 9 13 18 21 22 22 20 17 14 12 11 11 10 9 8 8 8 10 12 13 13 13 13 13 14 17 20 22 21 19 18 17 17 16 14 13 13 13 13
0 0 0 0 0 0 1 3 6 8 8 11 16 20 21 19 16 14 12 11 11 11 10 8 6 5 6 9 11 12 11 10 10 10 11 13 16 20 20 19 17 16 16 15 14 13 13 13 14
0 0 0 0 0 0 2 6 8 9 10 13 16 18 19 17 14 12 11 11 12 12 11 9 7 6 6 7 9 11 10 8 7 8 10 11 13 15 16 15 13 12 13 14 13 13 12 13 13
0 0 0 0 0 1 4 7 9 10 12 15 17 17 17 16 16 14 14 13 12 10 10 10 9 7 7 8 8 8 7 5 5 6 8 10 11 12 11 10 9 8 9 10 11 11 12 11 11
0 0 0 0 0 2 4 7 9 11 14 16 17 16 16 18 20 19 15 12 11 10 10 11 10 8 8 8 7 6 5 4 5 7 7 7 9 10 10 9 8 7 7 8 9 9 9 8 6
0 0 0 0 0 2 4 6 10 15 18 17 17 16 18 21 23 19 13 10 8 8 8 9 9 8 7 7 6 4 4 4 5 7 6 6 7 9 9 9 9 8 8 8 7 7 7 5 3
0 0 0 0 0 1 3 5 10 17 21 20 18 17 19 20 17 13 10 8 6 6 5 5 5 5 6 6 4 3 4 4 4 5 5 5 4 5 6 7 7 8 9 8 6 5 4 3 2
0 0 0 0 0 1 3 6 10 16 21 22 20 20 20 17 12 9 8 6 5 3 2 1 2 3 5 5 5 4 4 4 3 3 3 3 2 1 2 3 5 6 7 7 5 3 3 3 3
0 0 0 0 0 1 5 8 11 15 20 22 22 22 21 17 13 10 9 6 4 3 1 0 1 2 3 4 5 5 4 4 3 2 1 1 1 0 0 1 3 4 5 4 3 3 4 3 3
0 0 0 0 0 2 6 9 11 14 18 21 22 22 19 16 14 12 10 7 4 3 2 0 0 1 1 3 5 5 5 4 3 2 1 1 1 1 0 1 2 3 3 3 3 3 4 3 2
0 0 0 0 0 2 5 8 10 13 15 17 20 20 17 14 12 12 11 8 4 2 1 0 0 0 0 2 4 6 5 5 4 3 2 1 2 2 1 0 1 2 3 3 3 4 5 4 3
0 0 0 0 0 1 2 5 8 10 11 13 16 18 16 12 11 10 9 7 5 3 1 0 0 0 0 1 4 6 6 5 5 4 3 3 3 3 2 1 0 1 2 2 3 4 5 4 4
0 0 0 0 0 0 0 2 5 8 9 10 13 16 14 11 10 9 8 7 6 4 2 1 1 1 0 1 3 6 6 5 4 3 3 3 3 3 3 2 1 1 1 1 2 3 4 4 5
0 0 0 0 0 0 0 1 3 6 8 9 12 13 11 9 9 8 7 6 6 4 3 2 1 1 1 2 4 5 5 3 1 1 1 3 3 3 3 3 3 2 2 1 1 2 3 4 4
0 0 0 0 0 0 0 1 2 4 6 8 10 9 7 7 7 7 7 6 6 4 3 2 1 1 1 2 3 3 3 1 0 0 1 2 3 3 3 3 3 3 3 2 2 1 2 2 2
0 0 0 0 0 0 0 1 1 3 5 7 6 4 4 6 6 6 6 6 6 4 3 2 1 0 0 1 1 1 1 0 0 0 0 1 2 2 2 2 2 3 3 3 1 0 0 0 0
0 0 0 0 0 0 0 0 1 3 5 5 3 2 3 6 6 6 6 6 5 4 3 2 0 0 0 0 0 0 0 0 0 0 0 0 1 1 1 1 1 2 2 2 1 0 0 0 0
0 0 0 0 0 0 0 0 1 2 3 3 2 2 3 5 6 5 5 6 5 3 3 2 1 0 0 0 1 0 0 0 0 0 0 0 0 0 0 0 0 1 1 1 0 0 0 0 0
0 0 0 0 0 0 0 0 0 1 1 2 1 2 2 4 5 5 4 4 5 4 3 2 1 0 0 0 0 0 0 0 0 0 0 0 0 0 0 0 0 0 0 0 0 0 0 0 0
0 0 0 0 0 0 0 0 1 1 1 1 1 1 1 2 4 4 4 4 5 5 4 1 0 0 0 0 0 0 0 0 0 0 0 0 0 0 0 0 0 0 0 0 0 0 0 0 0
Wind_Speed
3 2 2 2 4 4 2 3 1 3 3 4 7 9 8 6 5 4 2 9 12 11 9 10 13 13 13 13 12 12 11 11 11 11 11 11 10 10 10 10 9 10 9 9 8 8 7 7 6
1 2 2 3 4 2 3 2 1 1 3 5 7 8 8 7 6 8 5 9 12 11 8 9 12 13 13 12 12 11 11 10 10 10 10 10 10 9 9 9 8 8 8 8 8 7 7 6 5
1 1 3 3 2 3 2 1 0 1 2 4 4 5 5 5 6 6 7 13 11 9 7 10 13 13 13 12 11 11 10 9 9 9 9 9 9 8 8 8 8 8 7 6 7 6 6 6 5
1 3 3 3 2 4 4 3 0 3 4 4 6 6 5 4 4 8 13 13 13 9 7 10 13 13 12 11 11 10 9 9 9 9 8 8 8 8 8 8 7 7 7 6 6 5 5 5 5
3 3 3 2 3 3 2 3 1 2 2 3 7 7 5 4 11 14 14 13 12 9 7 8 13 13 12 11 10 10 9 8 8 8 8 7 7 7 7 7 7 7 7 7 6 6 5 5 5
3 3 3 2 3 3 2 1 3 5 4 4 7 7 3 4 11 12 12 11 11 11 8 7 11 12 10 10 9 9 8 7 7 7 7 7 7 7 7 7 7 7 7 7 7 7 6 6 6
3 2 2 3 2 3 2 1 4 5 4 3 5 7 4 4 8 10 10 10 8 9 8 5 5 7 9 8 8 8 7 7 6 6 6 7 7 7 7 6 7 7 7 8 8 8 7 7 7
4 3 1 2 1 3 3 0 3 5 4 4 5 7 6 5 8 10 10 9 8 6 6 5 4 3 3 4 6 7 7 6 6 6 6 6 6 7 7 7 7 7 7 8 8 8 8 8 8
2 3 3 4 3 3 2 1 1 3 5 4 4 6 8 11 12 11 9 7 7 6 4 4 4 3 2 2 3 4 5 5 4 4 4 4 2 3 4 6 7 7 7 8 8 8 8 8 8
4 4 8 7 5 3 3 3 4 4 6 7 7 8 10 11 11 12 10 8 7 5 4 3 3 3 3 2 2 1 2 2 2 1 2 1 1 2 3 5 8 7 8 9 9 8 7 6 3
5 7 6 5 5 4 4 3 3 7 5 8 12 11 10 10 10 10 9 8 8 6 5 3 3 3 2 1 1 1 1 1 1 1 1 1 1 1 1 1 3 4 5 4 5 4 3 2 2
3 6 5 5 4 3 3 2 3 4 6 10 12 13 12 10 9 9 8 7 6 6 5 4 3 3 2 2 1 1 1 1 1 1 1 1 1 1 1 1 1 1 1 2 2 2 3 3 3
4 6 5 5 3 2 2 3 4 4 6 9 12 12 12 11 9 7 8 8 7 6 4 3 4 3 2 2 1 1 0 1 1 0 1 1 1 1 1 1 1 1 1 2 2 2 3 3 4
4 4 3 2 2 1 4 3 5 5 8 10 10 10 11 10 9 9 8 7 6 5 3 3 3 3 2 2 1 1 0 1 1 0 1 1 1 1 1 1 1 2 2 2 2 2 3 3 3
2 2 4 2 1 2 5 3 4 8 9 10 9 9 9 8 9 10 9 8 7 5 4 4 4 3 3 2 1 1 1 1 1 1 1 0 1 1 1 1 1 2 2 2 1 2 1 2 2
4 3 1 5 1 2 6 3 4 8 11 9 9 9 9 7 8 9 8 7 6 5 4 3 3 3 2 1 1 0 0 1 0 1 1 1 1 1 1 1 2 2 1 1 1 1 1 2 2
4 1 3 4 2 2 5 4 4 6 10 9 9 9 8 7 7 7 7 7 5 5 5 3 3 2 1 1 1 0 0 0 1 1 1 1 1 1 1 1 2 2 1 1 2 1 2 2 3
4 3 3 3 2 3 4 2 3 5 9 10 9 8 8 8 6 6 6 6 5 4 4 3 2 2 2 1 1 1 1 1 1 0 1 1 1 1 1 1 1 1 0 1 1 2 2 2 3
4 2 3 4 3 4 4 2 3 4 6 8 8 8 7 7 5 5 6 6 5 4 4 3 3 1 1 1 1 0 0 1 1 1 1 1 1 2 2 2 1 1 1 1 2 1 2 2 1
3 2 4 3 1 4 4 2 1 3 5 7 7 7 7 6 5 4 4 4 4 4 3 3 2 2 1 1 1 1 1 1 1 1 1 1 1 2 2 2 1 1 1 1 1 1 1 1 0
4 3 3 2 3 4 4 4 4 3 5 5 4 5 6 7 7 5 4 3 3 3 3 3 2 1 1 1 1 1 1 1 1 1 2 2 2 2 2 2 2 2 1 2 2 1 2 1 1
4 3 1 0 3 1 2 1 2 0 3 3 3 4 5 5 5 5 4 3 3 3 3 2 2 1 1 1 1 1 1 1 2 2 2 3 3 3 2 2 1 1 1 1 2 1 2 2 1
4 1 1 1 3 1 3 3 3 0 1 0 1 3 4 4 5 5 4 4 3 3 3 2 1 1 0 1 1 1 1 2 1 1 2 3 3 3 2 2 1 1 1 2 2 1 1 1 2
2 4 5 5 5 2 2 3 3 2 4 2 2 2 3 3 4 3 3 3 2 2 2 2 1 0 0 1 2 2 2 2 1 2 2 2 2 2 2 2 1 1 1 1 2 1 1 1 1
4 6 5 6 5 2 1 3 3 3 3 5 4 3 3 3 3 3 3 2 2 3 2 1 1 1 1 1 1 2 2 2 2 2 2 2 2 2 3 2 2 1 1 1 1 1 1 1 1
2 7 6 3 3 3 2 1 3 3 2 3 4 4 3 2 2 3 3 3 2 2 2 1 1 1 1 1 1 2 2 1 2 2 2 2 3 3 3 2 2 1 1 1 0 1 1 1 1
2 2 6 6 1 1 1 0 2 1 3 4 4 3 2 2 2 2 2 2 2 2 2 2 1 0 0 1 1 2 2 2 2 2 2 2 3 3 2 2 1 1 1 0 0 1 1 1 1
3 4 5 4 2 0 1 2 4 3 3 3 3 3 2 2 2 2 2 2 1 1 1 1 1 1 1 0 1 1 2 1 2 1 2 2 2 2 1 1 0 1 1 1 0 1 1 0 1
2 2 4 4 4 4 2 4 4 6 5 5 4 4 3 3 2 1 1 1 1 1 1 1 0 1 1 0 1 1 2 1 1 1 2 2 1 1 1 1 0 1 1 1 1 1 1 1 1
2 3 5 4 2 3 3 5 2 5 5 4 4 4 3 3 2 2 2 2 2 1 1 1 0 1 0 0 0 1 1 2 2 2 3 2 1 1 1 0 0 1 1 1 1 2 1 1 1
Wind_Direction
217 200 148 70 55 46 287 263 260 350 16 58 74 88 90 76 103 130 156 134 135 142 146 142 135 133 131 129 127 124 124 127 127 127 126 124 124 125 128 130 135 144 148 151 155 157 157 156 158
200 177 76 62 79 46 293 282 51 315 162 110 79 84 81 74 88 113 121 139 140 143 144 143 138 135 133 130 128 127 128 131 133 134 134 133 133 135 137 139 142 144 152 157 161 166 165 166 170
232 154 93 77 107 177 238 283 106 24 92 98 93 69 75 102 114 132 148 144 138 138 139 144 141 139 137 135 133 132 135 138 140 140 141 141 143 146 148 151 152 154 159 166 171 175 175 177 183
88 54 52 75 236 224 200 248 28 65 41 43 91 74 65 76 122 136 138 139 135 136 139 147 145 143 141 138 138 137 140 145 147 146 147 149 152 156 159 163 165 168 172 178 184 186 188 191 196
70 78 49 346 266 255 233 227 152 99 84 74 92 95 69 66 114 132 138 138 137 137 144 152 150 149 147 146 146 146 147 153 155 156 158 159 163 167 171 177 180 182 185 192 199 202 206 211 215
54 76 84 272 272 281 283 161 109 106 116 118 106 103 91 120 122 135 138 138 139 141 144 150 151 150 151 153 153 154 156 160 163 162 166 171 176 182 186 188 191 195 201 205 210 215 221 228 231
130 112 188 226 274 294 269 188 120 129 136 141 125 106 118 130 130 131 128 124 127 132 132 136 147 150 157 162 162 160 160 162 168 177 181 183 189 194 198 202 206 209 213 215 218 221 225 231 235
160 108 295 247 245 269 269 72 129 130 121 132 116 125 148 163 135 118 113 112 114 113 120 129 132 131 145 161 169 169 168 169 174 189 194 196 200 203 206 211 216 219 222 225 227 228 231 234 238
128 82 242 227 197 233 250 110 85 97 113 90 88 124 142 136 125 112 107 103 105 104 105 118 124 132 145 158 165 165 171 175 180 189 191 194 209 214 219 224 222 225 230 234 237 239 238 240 245
134 172 226 218 188 183 206 172 156 116 104 100 94 102 120 122 121 120 123 124 124 126 128 118 118 129 151 161 147 158 171 171 188 185 204 205 217 231 229 238 234 235 239 241 243 245 245 245 246
178 203 228 227 201 175 180 178 142 130 133 147 143 138 128 124 121 124 129 135 141 141 135 124 118 103 98 101 134 156 159 166 191 216 217 200 207 260 253 252 253 249 249 247 248 251 248 241 239
224 240 219 226 209 173 179 155 123 145 168 154 145 140 133 133 131 131 135 132 126 125 134 136 130 114 106 101 109 120 132 168 205 228 222 195 214 257 258 248 253 249 247 236 237 237 242 241 241
240 251 240 232 218 183 121 117 130 133 131 133 134 133 134 140 136 133 128 122 121 123 129 136 129 124 116 102 93 88 108 180 210 211 201 182 201 231 246 255 253 254 245 231 233 238 245 247 246
247 265 270 256 220 199 137 144 115 151 138 134 135 133 140 143 138 128 122 121 121 122 129 128 117 117 110 106 119 133 170 191 170 170 220 195 195 217 239 263 265 262 252 242 227 232 234 243 243
292 325 323 272 211 194 119 78 143 160 142 137 134 135 134 132 132 129 136 137 138 137 127 132 133 120 112 112 114 111 174 181 168 204 243 232 208 208 228 246 262 263 257 250 237 257 253 255 257
0 20 308 276 202 177 112 163 199 158 141 141 139 136 128 120 127 133 137 135 135 133 130 138 137 130 114 107 121 118 164 140 191 227 272 284 270 226 231 242 258 263 260 246 224 237 254 262 260
3 312 263 276 237 158 122 178 196 155 142 145 142 138 131 123 123 134 138 135 139 139 137 128 127 124 110 97 75 69 35 69 221 235 259 277 296 287 249 248 261 255 248 252 251 234 223 252 267
260 263 274 259 254 113 110 154 164 165 153 154 147 143 137 137 146 145 141 140 147 142 133 130 127 123 113 89 62 25 21 5 355 332 296 294 298 305 294 254 264 252 219 266 256 246 248 242 249
242 263 284 267 220 106 120 143 163 165 151 148 149 151 147 146 144 140 141 145 144 142 141 144 134 134 109 95 80 45 302 314 331 304 295 311 299 310 307 285 268 241 218 243 252 238 257 263 260
255 274 283 291 117 110 125 99 119 127 151 150 150 152 148 133 128 135 137 141 148 161 162 150 146 144 138 149 170 189 209 237 243 281 305 292 309 302 285 277 254 233 233 267 266 229 222 262 232
277 231 239 250 21 51 98 38 32 33 71 96 117 130 134 141 147 151 147 151 150 159 160 149 159 155 160 151 95 40 32 19 354 320 299 291 289 289 280 283 260 246 222 235 252 230 195 238 276
265 263 229 168 81 320 108 141 288 40 58 84 122 131 146 153 155 159 162 172 170 168 150 140 149 148 174 145 125 129 187 229 248 248 260 287 291 289 281 264 266 264 238 238 244 230 201 180 241
225 246 73 96 114 49 25 105 286 20 79 264 168 154 155 152 155 162 162 166 161 149 145 149 123 103 148 150 171 181 233 238 261 281 286 292 295 293 286 266 269 279 250 247 241 226 214 186 196
130 35 29 46 67 34 284 137 275 246 213 208 220 168 146 139 146 148 146 146 140 134 134 146 122 170 251 196 200 196 217 242 272 290 288 292 296 295 300 293 267 257 257 254 234 218 214 212 206
73 73 29 6 15 269 317 109 245 257 211 180 181 170 140 144 147 140 136 133 135 134 132 134 130 203 253 231 235 225 225 229 235 254 259 273 284 274 273 273 265 262 253 249 218 216 231 219 217
165 135 149 190 223 269 2 150 251 264 187 145 139 140 133 128 145 150 155 155 151 151 154 161 153 203 244 284 279 274 257 248 256 255 254 255 253 249 252 257 260 261 252 260 236 260 238 230 233
135 152 164 140 131 91 290 162 304 26 94 108 107 112 131 146 139 157 157 149 148 159 184 181 164 139 250 272 288 290 280 273 271 278 275 269 265 258 256 266 276 275 263 248 192 264 260 223 220
143 137 83 94 124 250 263 220 220 212 175 149 138 139 136 120 116 142 139 123 142 184 213 151 168 203 244 257 289 307 281 283 280 284 286 284 293 298 295 303 311 301 297 296 267 274 278 242 247
39 60 98 111 146 151 219 262 218 188 187 176 167 157 155 139 144 140 127 121 129 93 70 91 89 90 39 359 328 347 340 337 325 316 298 298 303 317 313 285 285 285 286 287 287 278 279 265 275
139 161 138 137 218 153 157 261 252 170 181 168 160 157 148 139 124 116 109 92 84 77 61 64 66 104 297 235 329 325 337 346 350 330 313 319 325 324 305 293 304 276 294 297 295 286 294 252 258